Location: Orange
(40.7703°N, 74.2325°W)
Time: 14:08:12
(UTC+00:00)

ISS - Visible Passes

Search period start: 30 November 2022 00:00
Search period end: 10 December 2022 00:00
Orbit: 411 x 420 km, 51.6° (Epoch: 30 November)

Date Brightness Start Highest point End Pass type
(mag) Time Alt. Az. Time Alt. Az. Time Alt. Az.
30 Nov -1.6 22:17:10 10° NNW 22:18:58 14° N 22:20:39 10° NE visible
30 Nov -0.7 23:53:23 10° NW 23:53:32 11° NW 23:53:32 11° NW visible
01 Dec -2.2 23:04:47 10° NW 23:06:55 22° N 23:06:55 22° N visible
02 Dec -2.0 22:16:10 10° NNW 22:18:37 19° NNE 22:20:22 13° NE visible
02 Dec -1.1 23:52:25 10° NW 23:53:16 17° NW 23:53:16 17° NW visible
03 Dec -3.5 23:03:41 10° NW 23:06:51 48° NNE 23:06:51 48° NNE visible
04 Dec -2.9 22:14:59 10° NW 22:18:00 31° NNE 22:20:38 12° E visible
04 Dec -1.5 23:51:42 10° WNW 23:53:32 25° W 23:53:32 25° W visible
05 Dec -3.4 23:02:40 10° WNW 23:05:57 62° SW 23:07:35 26° SSE visible
06 Dec -3.9 22:13:46 10° NW 22:17:06 74° NE 22:20:24 10° ESE visible
06 Dec -0.6 23:52:00 10° WSW 23:53:23 12° SW 23:54:46 10° SSW visible
07 Dec -1.2 23:02:04 10° W 23:04:40 21° SW 23:07:16 10° S visible
08 Dec -2.1 22:12:45 10° WNW 22:15:53 38° SW 22:18:58 10° SSE visible
